Baĺšavіk

Belarus     52˚33′49″N   30˚52′40″E
temp.,
°C
wind,
m/s
gust,
m/s
humid.,
%
clouds,
%
prec.,
mm/h
press.,
hPa
HPBL,
m
1 december, tue
tue100:00−1˚w1275100 0.0 1029116
03:00−2˚sw117870 0.0 102937
06:00−2˚w00800 0.0 102933
09:00−3˚n11820 0.0 102937
12:00ne23700 0.0 1030369
15:00ne34670 0.0 1030445
18:00−2˚ne36786 0.0 1030173
21:00−2˚ne378524 0.0 1031214
2 december, wed
wed200:00ene369299 0.0 1031286
03:00ene3793100 0.0 1031370
06:00ene4891100 0.0 1030511
09:00−2˚e4885100 0.1 1030427
12:00−1˚ese4779100 0.0 1030477
15:00−1˚ese4681100 0.0 1029551
18:00−2˚ese3794100 0.2 1029422
21:00−2˚ese378999 0.3 1029441
3 december, thu
thu300:00−2˚ese3692100 0.1 1028424
03:00−2˚se479198 0.2 1028428
06:00−2˚se468891 0.1 1027421
09:00−2˚se469095 0.1 1027405
12:00−1˚se468491 0.0 1026427
15:00−1˚se468495 0.1 1025511
18:00se4686100 0.0 1025475
21:00se4791100 0.0 1025432
4 december, fri
fri400:00ese4894100 0.1 1025378
03:00se4995100 0.1 1024445
06:00+1˚se5995100 0.0 1023498
09:00+1˚se61195100 0.0 1024438
12:00+2˚se61189100 0.0 1024542
15:00+2˚se6119299 0.0 1023606
18:00+1˚se71195100 0.0 1024598
21:00+1˚se71192100 0.0 1024749
5 december, sat
sat500:00+2˚se61289100 0.0 1024642
03:00+2˚se61291100 0.0 1024573
06:00+2˚se61291100 0.0 1023557
09:00+2˚se61291100 0.0 1024530
12:00+3˚se71286100 0.0 1024678
15:00+3˚se61285100 0.0 1024573
18:00+2˚se7128799 0.1 1025540
21:00+1˚se7138899 0.1 1025539